Du Bois, PA

1:29 AM EDT on April 30, 2017 (GMT -0400)
Du Bois-Jefferson County

Weather History for KDUJ - March, 2013

Change the Weather History Date:

Friday, March 22, 2013

  Actual Average Record
Temperature  
Mean Temperature 23 °F 37 °F  
Max Temperature 25 °F 47 °F 78 °F (2012)
Min Temperature 21 °F 27 °F 3 °F (1965)
Degree Days  
Heating Degree Days 42 28  
Month to date heating degree days 780 699  
Since 1 July heating degree days 5503 5722  
Cooling Degree Days 0 0  
Month to date cooling degree days 0 0  
Year to date cooling degree days 0 0  
Moisture  
Dew Point 19 °F    
Average Humidity 83    
Maximum Humidity 92    
Minimum Humidity 74    
Precipitation  
Precipitation T in 0.11 in 0.74 in (1977)
Month to date precipitation 0.97 2.30  
Sea Level Pressure  
Sea Level Pressure 29.83 in    
Wind  
Wind Speed 11 mph (West)    
Max Wind Speed 20 mph    
Max Gust Speed 30 mph    
Visibility 3 miles    
Events Snow    
T = Trace of Precipitation, MM = Missing Value Source: NWS Daily Summary

Daily Weather History Graph

Daily Weather History Graph

Search for Another Location

Airport or City:

Trip Planner

Search our weather history database for the weather conditions in past years. The results will help you decide how hot, cold, wet, or windy it might be!

Date:

Astronomy

Mar. 22, 2013 Rise Set
Actual Time 7:15 AM EDT 7:30 PM EDT
Civil Twilight 6:47 AM EDT 7:57 PM EDT
Nautical Twilight 6:15 AM EDT 8:30 PM EDT
Astronomical Twilight 5:42 AM EDT 9:03 PM EDT
Moon 2:53 PM EDT (3/22) 4:16 AM EDT (3/22)
Length of Visible Light 13h 10m
Length of Day
12h 14m
Waxing Gibbous, 77% of the Moon is Illuminated
Mar 22
Waxing Gibbous
Mar 27
Full
Apr 3
Last Quarter
Apr 10
New
Apr 18
First Quarter

Hourly Weather History & Observations

Time (EDT) Temp. Windchill Dew Point Humidity Pressure Visibility Wind Dir Wind Speed Gust Speed Precip Events Conditions
12:07 AM 21.2 °F 8.9 °F 19.4 °F 93% 29.74 in 3.0 mi West 12.7 mph - 0.00 in Snow Light Snow
12:24 AM 21.2 °F 6.8 °F 19.4 °F 93% 29.74 in 1.8 mi West 17.3 mph 23.0 mph 0.00 in Snow Light Snow
12:36 AM 21.2 °F 7.8 °F 19.4 °F 93% 29.74 in 0.8 mi WSW 15.0 mph - 0.00 in Snow Light Snow
12:48 AM 21.2 °F 7.8 °F 19.4 °F 93% 29.74 in 1.0 mi West 15.0 mph - 0.00 in Snow Light Snow
12:56 AM 21.9 °F 8.7 °F 19.9 °F 92% 29.82 in 0.8 mi West 15.0 mph - 0.00 in Snow Light Snow
1:01 AM 21.2 °F 8.3 °F 19.4 °F 93% 29.74 in 1.0 mi West 13.8 mph - 0.00 in Snow Light Snow
1:13 AM 21.2 °F 8.3 °F 19.4 °F 93% 29.74 in 1.2 mi West 13.8 mph - 0.00 in Snow Light Snow
1:20 AM 21.2 °F 7.8 °F 19.4 °F 93% 29.74 in 0.8 mi West 15.0 mph - 0.00 in Snow Light Snow
1:27 AM 21.2 °F 8.3 °F 19.4 °F 93% 29.74 in 0.8 mi West 13.8 mph - 0.00 in Snow Light Snow
1:43 AM 21.2 °F 8.3 °F 19.4 °F 93% 29.75 in 1.0 mi West 13.8 mph - 0.00 in Snow Light Snow
1:56 AM 21.9 °F 9.8 °F 19.9 °F 92% 29.83 in 1.0 mi West 12.7 mph - 0.00 in Snow Light Snow
2:52 AM 21.2 °F 8.9 °F 19.4 °F 93% 29.75 in 1.8 mi West 12.7 mph - 0.00 in Snow Light Snow
2:56 AM 21.9 °F 10.4 °F 19.9 °F 92% 29.83 in 1.8 mi West 11.5 mph - 0.00 in Snow Light Snow
3:08 AM 21.2 °F 10.9 °F 19.4 °F 93% 29.75 in 2.5 mi West 9.2 mph - 0.00 in Snow Light Snow
3:56 AM 21.9 °F 9.2 °F 19.0 °F 89% 29.82 in 4.0 mi West 13.8 mph - 0.00 in   Overcast
4:08 AM 21.2 °F 9.5 °F 19.4 °F 93% 29.74 in 1.8 mi West 11.5 mph - 0.00 in Snow Light Snow
4:16 AM 21.2 °F 9.5 °F 19.4 °F 93% 29.74 in 0.8 mi West 11.5 mph - 0.00 in Snow Light Snow
4:24 AM 21.2 °F 9.5 °F 19.4 °F 93% 29.74 in 1.2 mi West 11.5 mph - 0.00 in Snow Light Snow
4:32 AM 21.2 °F 9.5 °F 19.4 °F 93% 29.74 in 2.5 mi West 11.5 mph - 0.00 in Snow Light Snow
4:40 AM 21.2 °F 10.9 °F 19.4 °F 93% 29.74 in 5.0 mi West 9.2 mph - 0.00 in   Overcast
4:56 AM 21.9 °F 10.4 °F 19.0 °F 89% 29.82 in 4.0 mi West 11.5 mph - 0.00 in   Overcast
5:01 AM 21.2 °F 9.5 °F 19.4 °F 93% 29.74 in 2.5 mi West 11.5 mph - 0.00 in Snow Light Snow
5:11 AM 21.2 °F 9.5 °F 19.4 °F 93% 29.74 in 2.5 mi West 11.5 mph - 0.00 in   Overcast
5:13 AM 21.2 °F 9.5 °F 19.4 °F 93% 29.74 in 3.0 mi West 11.5 mph - 0.00 in   Overcast
5:56 AM 21.9 °F 11.0 °F 19.0 °F 89% 29.83 in 3.0 mi West 10.4 mph - 0.00 in Snow Light Snow
6:03 AM 21.2 °F 10.1 °F 19.4 °F 93% 29.75 in 1.8 mi West 10.4 mph - 0.00 in Snow Light Snow
6:22 AM 21.2 °F 9.5 °F 19.4 °F 93% 29.76 in 2.0 mi West 11.5 mph - 0.00 in Snow Light Snow
6:37 AM 21.2 °F 10.9 °F 19.4 °F 93% 29.77 in 2.0 mi West 9.2 mph - 0.00 in Snow Light Snow
6:53 AM 21.2 °F 11.7 °F 17.6 °F 86% 29.77 in 1.8 mi West 8.1 mph - 0.00 in Snow Light Snow
6:56 AM 21.9 °F 9.8 °F 18.0 °F 85% 29.85 in 1.8 mi West 12.7 mph - 0.00 in Snow Light Snow
7:29 AM 21.2 °F 9.5 °F 17.6 °F 86% 29.79 in 3.0 mi West 11.5 mph - 0.00 in Snow Light Snow
7:38 AM 21.2 °F 8.9 °F 17.6 °F 86% 29.79 in 7.0 mi West 12.7 mph 18.4 mph 0.00 in   Overcast
7:48 AM 21.2 °F 7.8 °F 17.6 °F 86% 29.80 in 2.0 mi West 15.0 mph - 0.00 in Snow Light Snow
7:56 AM 21.0 °F 9.9 °F 18.0 °F 88% 29.88 in 2.0 mi West 10.4 mph 19.6 mph 0.00 in Snow Light Snow
8:03 AM 21.2 °F 10.9 °F 17.6 °F 86% 29.80 in 1.8 mi West 9.2 mph - 0.00 in Snow Light Snow
8:33 AM 21.2 °F 8.9 °F 17.6 °F 86% 29.80 in 2.0 mi West 12.7 mph - 0.00 in Snow Light Snow
8:43 AM 21.2 °F 10.1 °F 17.6 °F 86% 29.81 in 3.0 mi West 10.4 mph - 0.00 in   Overcast
8:51 AM 21.2 °F 8.3 °F 17.6 °F 86% 29.81 in 1.8 mi West 13.8 mph - 0.00 in Snow Light Snow
8:56 AM 21.9 °F 11.0 °F 18.0 °F 85% 29.88 in 1.2 mi West 10.4 mph - 0.00 in Snow Light Snow
9:13 AM 21.2 °F 9.5 °F 19.4 °F 93% 29.81 in 1.2 mi West 11.5 mph - 0.00 in Snow Light Snow
9:21 AM 21.2 °F 8.9 °F 17.6 °F 86% 29.81 in 2.0 mi West 12.7 mph - 0.00 in Snow Light Snow
9:30 AM 21.2 °F 10.1 °F 19.4 °F 93% 29.81 in 2.0 mi West 10.4 mph - 0.00 in Snow Light Snow
9:50 AM 23.0 °F 12.4 °F 17.6 °F 80% 29.81 in 1.8 mi West 10.4 mph 19.6 mph 0.00 in Snow Light Snow
9:56 AM 23.0 °F 10.6 °F 18.0 °F 81% 29.89 in 1.5 mi WNW 13.8 mph 19.6 mph 0.00 in Snow Light Snow
10:05 AM 23.0 °F 13.1 °F 17.6 °F 80% 29.82 in 1.8 mi West 9.2 mph - 0.00 in Snow Light Snow
10:10 AM 23.0 °F 9.6 °F 17.6 °F 80% 29.82 in 3.0 mi West 16.1 mph 20.7 mph 0.00 in Snow Light Snow
10:56 AM 24.1 °F 13.7 °F 17.1 °F 75% 29.89 in 10.0 mi WNW 10.4 mph 21.9 mph 0.00 in   Overcast
11:56 AM 25.0 °F 14.2 °F 17.1 °F 72% 29.90 in 8.0 mi WNW 11.5 mph 23.0 mph N/A   Overcast
12:56 PM 24.1 °F 13.1 °F 17.1 °F 75% 29.91 in 9.0 mi West 11.5 mph 20.7 mph N/A   Overcast
1:56 PM 24.1 °F 11.0 °F 17.1 °F 75% 29.91 in 10.0 mi West 16.1 mph - N/A   Overcast
2:56 PM 24.1 °F 12.0 °F 17.1 °F 75% 29.92 in 10.0 mi West 13.8 mph 21.9 mph N/A   Overcast
3:49 PM 24.8 °F 12.9 °F 17.6 °F 74% 29.85 in 1.8 mi West 13.8 mph 19.6 mph 0.00 in Snow Light Snow
3:56 PM 25.0 °F 12.2 °F 19.0 °F 78% 29.92 in 1.0 mi West 16.1 mph - 0.00 in Snow Light Snow
4:08 PM 24.8 °F 12.9 °F 19.4 °F 80% 29.86 in 0.8 mi West 13.8 mph - 0.00 in Snow Light Snow
4:43 PM 24.8 °F 12.4 °F 19.4 °F 80% 29.87 in 2.0 mi West 15.0 mph - 0.00 in Snow Light Snow
4:53 PM 24.8 °F 13.4 °F 19.4 °F 80% 29.87 in 3.0 mi West 12.7 mph - 0.00 in Snow Light Snow
4:56 PM 25.0 °F 13.6 °F 19.0 °F 78% 29.94 in 2.5 mi West 12.7 mph - 0.00 in Snow Light Snow
5:08 PM 24.8 °F 13.4 °F 19.4 °F 80% 29.87 in 1.8 mi WNW 12.7 mph 21.9 mph 0.00 in Snow Light Snow
5:26 PM 24.8 °F 14.0 °F 19.4 °F 80% 29.88 in 2.0 mi West 11.5 mph - 0.00 in Snow Light Snow
5:40 PM 24.8 °F 12.4 °F 19.4 °F 80% 29.88 in 3.0 mi West 15.0 mph 21.9 mph 0.00 in Snow Light Snow
5:56 PM 25.0 °F 13.6 °F 19.0 °F 78% 29.95 in 2.0 mi West 12.7 mph - 0.00 in Snow Light Snow
6:06 PM 24.8 °F 14.6 °F 19.4 °F 80% 29.88 in 1.5 mi West 10.4 mph - 0.00 in Snow Light Snow
6:37 PM 24.8 °F 15.3 °F 19.4 °F 80% 29.89 in 1.0 mi West 9.2 mph - 0.00 in Snow Light Snow
6:56 PM 24.1 °F 14.4 °F 19.9 °F 84% 29.97 in 1.8 mi West 9.2 mph - 0.00 in Snow Light Snow
7:04 PM 24.8 °F 15.3 °F 19.4 °F 80% 29.90 in 2.0 mi West 9.2 mph - 0.00 in Snow Light Snow
7:15 PM 24.8 °F 15.3 °F 19.4 °F 80% 29.90 in 2.5 mi West 9.2 mph - 0.00 in   Overcast
7:25 PM 24.8 °F 16.9 °F 19.4 °F 80% 29.90 in 1.0 mi West 6.9 mph - 0.00 in Snow Light Snow
7:47 PM 24.8 °F 16.1 °F 19.4 °F 80% 29.91 in 3.0 mi West 8.1 mph - 0.00 in Snow Light Snow
7:56 PM 24.1 °F 14.4 °F 19.9 °F 84% 29.98 in 4.0 mi West 9.2 mph - 0.00 in   Overcast
8:17 PM 24.8 °F 15.3 °F 19.4 °F 80% 29.92 in 4.0 mi West 9.2 mph - N/A   Overcast
8:56 PM 24.1 °F 15.2 °F 21.0 °F 88% 30.00 in 7.0 mi West 8.1 mph - N/A   Overcast
9:56 PM 24.1 °F 15.2 °F 19.9 °F 84% 30.00 in 10.0 mi West 8.1 mph - N/A   Overcast
10:56 PM 24.1 °F 18.2 °F 19.0 °F 81% 30.00 in 10.0 mi WNW 4.6 mph - N/A   Overcast